[ hide orbit diagram ]
For accurate long-term ephemerides, please instead use our Horizons system.This orbit viewer was implemented using two-body methods, and hence should not be used for determining accurate long-term trajectories (over several years or decades) or planetary encounter circumstances.
Orbital Elements at Epoch 2459000.5 (2020-May-31.0) TDB
Reference: JPL 28 (heliocentric ecliptic J2000)
Element | Value | Uncertainty (1-sigma) | Units |
e | .1731527538400743 | 3.6351e-08 | |
a | 3.161397778596178 | 1.5446e-08 | au |
q | 2.613993047248356 | 1.152e-07 | au |
i | 1.573327812524432 | 4.4426e-06 | deg |
node | 36.92946656909093 | 0.00012369 | deg |
peri | 18.6597836779336 | 0.00012425 | deg |
M | 187.1095061816015 | 1.3514e-05 | deg |
tp | 2459986.520073737254 (2023-Feb-11.02007374) | 8.2012e-05 | TDB |
period | 2053.133279370836 5.62 | 1.5047e-05 4.12e-08 | d yr |
n | .1753417586754615 | 1.285e-09 | deg/d |
Q | 3.708802509943999 | 1.8121e-08 | au |
|
| | Orbit Determination Parameters
Additional Information
|
[ hide covariance matrix ]
Orbital Elements at Epoch 2456484.5 (2013-Jul-11.0) TDB
Reference: JPL 28 (heliocentric ecliptic J2000)
Element | Value | Uncertainty (1-sigma) | Units |
e | .1752675682431631 | 3.6295e-08 | |
q | 2.605251907017612 | 1.1495e-07 | au |
tp | 2455883.368824661856 (2011-Nov-17.86882466) | 6.385e-05 | TDB |
node | 36.94866597550436 | 0.00012356 | deg |
peri | 18.91593261936915 | 0.00012411 | deg |
i | 1.574971992910179 | 4.446e-06 | deg |
|
| | Orbit Determination Parameters
Additional Information
|
Orbit Covariance (6×6)
|
|
e |
q |
tp |
node |
peri |
i |
e |
1.317335764633063E-15 |
-4.146218666234555E-15 |
-4.471735577084876E-13 |
-5.069242231081E-17 |
-1.062334869389117E-13 |
-7.682929023412448E-17 |
q |
-4.146218666234555E-15 |
1.321382881897759E-14 |
1.742269193435662E-12 |
-4.600852904346365E-16 |
4.00922416488684E-13 |
2.762900134403178E-16 |
tp |
-4.471735577084876E-13 |
1.742269193435662E-12 |
4.076769602145545E-9 |
7.347243320758117E-13 |
7.549937619764286E-10 |
-4.604212530360378E-13 |
node |
-5.069242231081E-17 |
-4.600852904346365E-16 |
7.347243320758117E-13 |
1.526750844010191E-8 |
-1.526152967263433E-8 |
-6.229063320367109E-11 |
peri |
-1.062334869389117E-13 |
4.00922416488684E-13 |
7.549937619764286E-10 |
-1.526152967263433E-8 |
1.540381342430641E-8 |
6.218948754531056E-11 |
i |
-7.682929023412448E-17 |
2.762900134403178E-16 |
-4.604212530360378E-13 |
-6.229063320367109E-11 |
6.218948754531056E-11 |
1.976698399201649E-11 |
|
Physical Parameter Table
Parameter |
Symbol |
Value |
Units |
Sigma |
Reference |
Notes |
absolute magnitude |
H |
13.12 |
|
n/a |
E2021B10 |
|
diameter |
diameter |
12.758 |
km |
0.280 |
urn:nasa:pds:neowise_diameters_albedos::2.0[mainbelt] (http://adsabs.harvard.edu/abs/2011ApJ...741...68M) |
|
geometric albedo |
albedo |
0.082 |
|
0.010 |
urn:nasa:pds:neowise_diameters_albedos::2.0[mainbelt] (http://adsabs.harvard.edu/abs/2011ApJ...741...68M) |
|
|
3292 Sather (2631 P-L) Discovered 1960-Sep-24 by PLS at Palomar |
These planets have all been discovered as a result of the Palomar survey of faint minor planets and subsequently identified with planets observed at other oppositions. In Sept. and Oct. 1960, T. Gehrels exposed 130 plates with the 122 cm Schmidt camera at Palomar. In the following years C. J. van Houten and I. van Houten-Groeneveld measured these plates astrometrically and photometrically at Leiden. P. Herget, Cincinnati, computed the orbits of the planets found on the NORC computer, Dahlgren, Virginia, USA. |
Note: "planet" implies "minor planet" |
Reference: DISCOVERY.DB | Last Updated: 2003-08-29 |
|
[ hide close-approach data ]
Close-Approach Data ...sorted by Date/Time (TDB)
|
Date/Time (TDB) |
Time Uncertainty (days_HH:MM) |
Body |
Nominal Distance (au) |
Minimum Distance (au) |
Maximum Distance (au) |
V-relative (km/s) |
V-infinity (km/s) |
JD (TDB) |
Time Uncertainty (minutes) |
Semi-major axis (km) |
Semi-minor axis (km) |
range-LOV angle (deg) |
N-sigma |
BP |
Orbit Ref. |
Reference |
Modified |
1914-Aug-03 11:15 |
00:03 |
Jupiter |
1.93838341768487 |
1.93838231981444 |
1.93838451555574 |
3.39168462679879 |
3.26030324782062 |
2420347.968451869 |
2.50760486093568 |
85.60257871859 |
20.2534176002083 |
67.5826608982323 |
2070163.12692178 |
T |
28 |
CATAB v2.0f-lin.ifort 2020-Nov-13 04:01:37 |
2020-Nov-13 04:01 |
1925-Apr-14 13:20 |
00:02 |
Jupiter |
1.74946969213004 |
1.7494689833094 |
1.7494704009502 |
2.14871540590699 |
1.9101462589291 |
2424255.055573817 |
2.20100783447726 |
49.1941059747465 |
14.4118202593989 |
-87.1320675385658 |
1400625.96775022 |
T |
28 |
CATAB v2.0f-lin.ifort 2020-Nov-13 04:01:37 |
2020-Nov-13 04:01 |
1936-Jan-07 14:06 |
00:02 |
Jupiter |
1.69577073734758 |
1.69577041940343 |
1.69577105529145 |
1.69133789931346 |
1.36441985561242 |
2428175.087440835 |
1.79839922399821 |
56.3299355604205 |
36.7113807390032 |
88.5092849478473 |
2811338.72491847 |
T |
28 |
CATAB v2.0f-lin.ifort 2020-Nov-13 04:01:37 |
2020-Nov-13 04:01 |
1946-Oct-08 18:47 |
00:01 |
Jupiter |
1.81426077989054 |
1.81426018486008 |
1.8142613749213 |
1.99612067634867 |
1.74664229705388 |
2432102.282482277 |
1.46759646924349 |
82.1502535677952 |
11.2874835351951 |
-89.3759463128409 |
2509317.45643509 |
T |
28 |
CATAB v2.0f-lin.ifort 2020-Nov-13 04:01:37 |
2020-Nov-13 04:01 |
2032-Dec-06 13:11 |
< 00:01 |
Jupiter |
1.84307321006708 |
1.84307283577573 |
1.84307358435842 |
2.83255090947805 |
2.6653711145494 |
2463573.049179876 |
0.533438674573862 |
43.8678860449797 |
10.9089456682967 |
88.8068282681387 |
3535641.31787003 |
T |
28 |
CATAB v2.0f-lin.ifort 2020-Nov-13 04:01:37 |
2020-Nov-13 04:01 |
2043-Aug-21 11:01 |
< 00:01 |
Jupiter |
1.69396267012819 |
1.6939623753313 |
1.69396296492498 |
1.85978629900688 |
1.56804223711245 |
2467482.958867779 |
0.815058794661483 |
50.0284844302557 |
17.3321422708638 |
86.632591828086 |
3460817.59559681 |
T |
28 |
CATAB v2.0f-lin.ifort 2020-Nov-13 04:01:37 |
2020-Nov-13 04:01 |
2054-May-19 16:36 |
00:01 |
Jupiter |
1.71326543682984 |
1.71326496193277 |
1.71326591172662 |
1.71095558352974 |
1.39233170930007 |
2471407.191508328 |
1.13189748192184 |
60.5692156167738 |
33.3929978902296 |
-84.5501368175328 |
2414423.98022139 |
T |
28 |
CATAB v2.0f-lin.ifort 2020-Nov-13 04:01:37 |
2020-Nov-13 04:01 |
2065-Feb-16 13:12 |
00:01 |
Jupiter |
1.89432706541255 |
1.89432636034263 |
1.89432777048279 |
2.28835977393774 |
2.08382286374046 |
2475333.050315670 |
1.45666628701243 |
76.720061841138 |
3.73209432931476 |
83.2846309744795 |
2591051.71351473 |
T |
28 |
CATAB v2.0f-lin.ifort 2020-Nov-13 04:01:37 |
2020-Nov-13 04:01 |
2140-Aug-06 14:48 |
00:03 |
Jupiter |
1.97906773264151 |
1.97906648580755 |
1.97906897947796 |
3.78734720632383 |
3.67260364461022 |
2502897.116382327 |
3.24908052622922 |
138.613918552493 |
19.4167198128127 |
71.3277392758926 |
2890170.20914071 |
T |
28 |
CATAB v2.0f-lin.ifort 2020-Nov-13 04:01:37 |
2020-Nov-13 04:01 |
2151-Apr-19 00:40 |
00:04 |
Jupiter |
1.75714315666168 |
1.7571422479985 |
1.75714406532477 |
2.36961658847743 |
2.15661593064774 |
2506804.527982974 |
3.54161826912994 |
77.7777050040248 |
6.90262653275073 |
-86.9891788280824 |
1577845.06445514 |
T |
28 |
CATAB v2.0f-lin.ifort 2020-Nov-13 04:01:37 |
2020-Nov-13 04:01 |
2162-Jan-06 16:33 |
00:04 |
Jupiter |
1.66379394570978 |
1.66379361625345 |
1.66379427516601 |
1.69383955072584 |
1.36048169152943 |
2510720.189636474 |
3.73255841127611 |
65.706727519714 |
47.7403588996826 |
-56.3656760645543 |
2709550.9937213 |
T |
28 |
CATAB v2.0f-lin.ifort 2020-Nov-13 04:01:37 |
2020-Nov-13 04:01 |
2172-Oct-07 11:29 |
00:04 |
Jupiter |
1.75632555319114 |
1.75632424698529 |
1.75632685939688 |
1.83342230180792 |
1.54819185824969 |
2514646.978739162 |
4.03767337935864 |
113.508170890474 |
22.690241252594 |
-79.4003660836435 |
1900230.8309088 |
T |
28 |
CATAB v2.0f-lin.ifort 2020-Nov-13 04:01:37 |
2020-Nov-13 04:01 |
2183-Jul-07 16:50 |
00:04 |
Jupiter |
1.98382162627263 |
1.98381979119202 |
1.98382346135888 |
2.64948451011574 |
2.48311056001471 |
2518572.201326385 |
4.34450367982558 |
203.606372391894 |
10.449220866533 |
76.5912697416334 |
2716761.80304922 |
T |
28 |
CATAB v2.0f-lin.ifort 2020-Nov-13 04:01:37 |
2020-Nov-13 04:01 |
|
Alternate Designations
2631 P-L = 1954 TR = 1977 SX |
|
|